Weather History for KDFW - August, 2012

Change the Weather History Date:

Monday, August 20, 2012

  Actual Average Record
Temperature  
Mean Temperature 81 °F 86 °F  
Max Temperature 93 °F 96 °F 107 °F (2011)
Min Temperature 69 °F 75 °F 58 °F (1940)
Degree Days  
Heating Degree Days 0 0  
Month to date heating degree days 0 0  
Since 1 June heating degree days 0 0  
Since 1 July heating degree days 0 0  
Cooling Degree Days 16 21  
Month to date cooling degree days 474 420  
Year to date cooling degree days 2459 1964  
Since 1 June cooling degree days 1772 1542  
Growing Degree Days 31 (Base 50)    
Moisture  
Dew Point 59 °F    
Average Humidity 54    
Maximum Humidity 79    
Minimum Humidity 28    
Precipitation  
Precipitation 0.00 in 0.07 in 1.53 in (1977)
Month to date precipitation 2.90 1.10  
Year to date precipitation 26.20 23.30  
Sea Level Pressure  
Sea Level Pressure 29.93 in    
Wind  
Wind Speed 6 mph (NNE)    
Max Wind Speed 14 mph    
Max Gust Speed 17 mph    
Visibility 10 miles    
Events      
T = Trace of Precipitation, MM = Missing Value Source: NWS Daily Summary

Daily Weather History Graph

Daily Weather History Graph

Search for Another Location

Airport or City:

Trip Planner

Search our weather history database for the weather conditions in past years. The results will help you decide how hot, cold, wet, or windy it might be!

Date:

Astronomy

Aug. 20, 2012 Rise Set
Actual Time 6:55 AM CDT 8:07 PM CDT
Civil Twilight 6:29 AM CDT 8:32 PM CDT
Nautical Twilight 5:58 AM CDT 9:03 PM CDT
Astronomical Twilight 5:26 AM CDT 9:34 PM CDT
Moon 10:03 AM CDT (8/20) 9:47 PM CDT (8/20)
Length of Visible Light 14h 03m
Length of Day
13h 11m
Waxing Crescent, 11% of the Moon is Illuminated
Aug 20
Waxing Crescent
Aug 24
First Quarter
Aug 31
Full
Sep 8
Last Quarter
Sep 15
New

Hourly Weather History & Observations

Time (CDT) Temp. Heat Index Dew Point Humidity Pressure Visibility Wind Dir Wind Speed Gust Speed Precip Events Conditions
12:53 AM 73.9 °F - 57.0 °F 55% 29.91 in 10.0 mi NNW 10.4 mph - N/A   Partly Cloudy
1:53 AM 73.0 °F - 57.0 °F 57% 29.91 in 10.0 mi North 6.9 mph - N/A   Partly Cloudy
2:53 AM 73.9 °F - 60.1 °F 62% 29.91 in 10.0 mi NNW 9.2 mph - N/A   Partly Cloudy
3:53 AM 71.1 °F - 61.0 °F 70% 29.91 in 10.0 mi North 8.1 mph - N/A   Partly Cloudy
4:53 AM 71.1 °F - 62.1 °F 73% 29.92 in 10.0 mi NNW 6.9 mph - N/A   Partly Cloudy
5:53 AM 71.1 °F - 64.0 °F 78% 29.94 in 10.0 mi NNW 6.9 mph - N/A   Clear
6:53 AM 69.1 °F - 63.0 °F 81% 29.96 in 10.0 mi North 6.9 mph - N/A   Partly Cloudy
7:53 AM 72.0 °F - 64.9 °F 78% 29.96 in 10.0 mi NNW 6.9 mph - N/A   Partly Cloudy
8:53 AM 75.0 °F - 66.0 °F 73% 29.98 in 10.0 mi NNE 5.8 mph - N/A   Scattered Clouds
9:53 AM 78.1 °F - 66.0 °F 66% 29.98 in 10.0 mi North 8.1 mph - N/A   Mostly Cloudy
10:53 AM 82.0 °F 83.0 °F 62.1 °F 51% 29.98 in 10.0 mi North 8.1 mph - N/A   Partly Cloudy
11:53 AM 84.0 °F 84.4 °F 61.0 °F 46% 29.98 in 10.0 mi NNE 5.8 mph - N/A   Partly Cloudy
12:53 PM 87.1 °F 86.1 °F 57.9 °F 37% 29.96 in 10.0 mi North 8.1 mph - N/A   Partly Cloudy
1:53 PM 89.1 °F 86.9 °F 54.0 °F 30% 29.94 in 10.0 mi NE 6.9 mph - N/A   Scattered Clouds
2:53 PM 90.0 °F 87.9 °F 55.0 °F 30% 29.93 in 10.0 mi East 5.8 mph - N/A   Scattered Clouds
3:53 PM 89.1 °F 87.1 °F 55.0 °F 31% 29.92 in 10.0 mi East 3.5 mph - N/A   Scattered Clouds
4:53 PM 91.0 °F 88.7 °F 54.0 °F 28% 29.90 in 10.0 mi Calm Calm - N/A   Scattered Clouds
5:53 PM 91.0 °F 89.2 °F 55.9 °F 30% 29.88 in 10.0 mi NE 8.1 mph - N/A   Scattered Clouds
6:53 PM 88.0 °F 86.1 °F 55.0 °F 32% 29.88 in 10.0 mi East 9.2 mph - N/A   Scattered Clouds
7:53 PM 84.0 °F 82.6 °F 54.0 °F 35% 29.87 in 10.0 mi East 6.9 mph - N/A   Partly Cloudy
8:53 PM 81.0 °F 80.5 °F 54.0 °F 39% 29.87 in 10.0 mi ESE 4.6 mph - N/A   Partly Cloudy
9:53 PM 79.0 °F - 55.9 °F 45% 29.90 in 10.0 mi SSE 3.5 mph - N/A   Partly Cloudy
10:53 PM 79.0 °F - 55.0 °F 44% 29.94 in 10.0 mi ESE 3.5 mph - N/A   Mostly Cloudy
11:53 PM 77.0 °F - 57.0 °F 50% 29.94 in 10.0 mi ESE 4.6 mph - N/A   Mostly Cloudy